Погода в Станции Падозеро

Россия / Республика Карелия     61°51′53″N   33°55′00″E
темп.,
°C
ветер,
м/с
пор.,
м/с
влажн.,
%
обл.,
%
осадки,
мм/ч
давл.,
гПа
погр.,
м
16 мая, вс
вс1600:00+12св2772100 0.0 1004181
03:00+11ссв2888100 0.5 1003259
06:00+11ссв2792100 0.7 1003303
09:00+12ссв2591100 2.4 1004326
12:00+12ссв1396100 4.0 1006227
15:00+13сз1291100 4.9 1007256
18:00+15з1285100 0.1 1008185
21:00+13ю0093100 0.1 101010
17 мая, пн
пн1700:00+11ююз229598 0.0 101132
03:00+10ююз229712 0.0 101343
06:00+12ю12907 0.0 101379
09:00+16ююз23715 0.0 1015564
12:00+20ююз23545 0.0 10151334
15:00+22ююв344652 0.0 10142011
18:00+17вюв3872100 0.0 1014297
21:00+16вюв31078100 0.0 1013280
18 мая, вт
вт1800:00+15юв3118274 0.0 1013318
03:00+14юв3118885 0.0 1012296
06:00+14юв31188100 0.4 1011433
09:00+17вюв4883100 1.0 1010440
12:00+22юв4862100 0.0 1008834
15:00+26юв41046100 0.0 10071549
18:00+25юв51247100 0.0 10051512
21:00+21юв6155883 0.0 1005835
19 мая, ср
ср1900:00+19ююв5166751 0.0 1005787
03:00+17ююв4127686 0.0 1005342
06:00+17юв41376100 0.0 1003450
09:00+21ю5135935 0.0 10031206
12:00+24ю610455 0.0 10041961
15:00+25ю51341100 0.0 10042657
18:00+24юз49507 0.0 10031601
21:00+18юв367699 0.3 1004147
20 мая, чт
чт2000:00+15ю4128699 1.3 1004594
03:00+15юв259473 1.3 1004247
06:00+15вюв158830 0.0 1003213
09:00+19юв477741 0.3 1002725
12:00+23ююв695584 0.1 10001717
15:00+24ююв5845100 0.2 9992243
18:00+20ю3564100 0.4 999913
21:00+15юв388797 1.8 998306